This demonstration page uses our WeatherBlox Daily Observations layout. Learn more.

Hourly Observations for July 21, 2017

Temp ( °F °C ) Dew Point ( °F °C ) Humidity (%) Winds ( mph kmh ) Pressure ( in mb ) Visibility ( mi km ) Precip ( " mm )
12:53 am 00:53 Mostly Cloudy 76 24.4 75 23.9 97 97 Calm 29.98 1015 7 11.26538 0 0
1:53 am 01:53 Cloudy 80 26.7 74 23.3 82 82 WSW 3 6 29.98 1015 8 12.87472 0 0
2:53 am 02:53 Mostly Cloudy 80 26.7 74 23.3 82 82 WSW 5 7 29.97 1015 8 12.87472 0 0
3:53 am 03:53 Mostly Cloudy 81 27.2 74 23.3 79 79 WSW 7 11 29.96 1015 8 12.87472 0 0
4:53 am 04:53 Mostly Cloudy 80 26.7 74 23.3 82 82 WSW 6 9 29.97 1015 8 12.87472 0 0
5:53 am 05:53 Clear 78 25.6 74 23.3 87 87 W 3 6 29.97 1015 7 11.26538 0 0.0254
6:53 am 06:53 Partly Cloudy with Mist and Fog 77 25 75 23.9 94 94 W 5 7 29.98 1015 5 8.0467 0 0
7:48 am 07:48 Windy with Storms Likely 79 26 72 22 79 79 NW 21 33 30.06 1018 6 9.65604 0 0.0254
7:53 am 07:53 Windy with Storms Likely 75 23.9 71 21.7 88 88 NW 21 33 30.04 1017 5 8.0467 0 0.0254
8:03 am 08:03 Cloudy with Light Rain 75 23.9 71 21.7 88 88 NNW 13 20 30.06 1018 5 8.0467 0.01 0.254
8:53 am 08:53 Mostly Cloudy with Light Rain 73 22.8 70 21.1 90 90 NW 7 11 30.04 1017 9 14.48406 0.02 0.508
9:53 am 09:53 Mostly Cloudy with Rain 72 22.2 71 21.7 97 97 Calm 30.02 1017 4 6.43736 0.12 3.048
10:53 am 10:53 Mostly Cloudy with Light Rain 73 22.8 72 22.2 96 96 Calm 30.03 1017 10 16.0934 0.02 0.508
11:53 am 11:53 Partly Cloudy 75 23.9 72 22.2 90 90 VRB 5 7 30 1016 10 16.0934 0 0.0254
12:53 pm 12:53 Sunny 78 25.6 73 22.8 85 85 VRB 5 7 30.02 1017 10 16.0934 0 0
1:53 pm 13:53 Sunny 81 27.2 75 23.9 82 82 WNW 5 7 30.02 1017 10 16.0934 0 0
2:53 pm 14:53 Sunny 83 28.3 75 23.9 77 77 W 3 6 30 1016 10 16.0934 0 0
3:53 pm 15:53 Sunny 86 30 74 23.3 67 67 VRB 3 6 29.99 1016 10 16.0934 0 0
4:53 pm 16:53 Sunny 86 30 74 23.3 67 67 WNW 7 11 29.98 1015 10 16.0934 0 0
5:53 pm 17:53 Mostly Sunny 88 31.1 74 23.3 63 63 NW 6 9 29.95 1014 10 16.0934 0 0
6:53 pm 18:53 Mostly Cloudy 88 31.1 76 24.4 68 68 N 5 7 29.94 1014 10 16.0934 0 0
7:48 pm 19:48 Mostly Cloudy with Nearby Thunderstorms 84 29 73 23 70 70 NNE 5 7 29.94 1014 10 16.0934 0 0
7:53 pm 19:53 Mostly Cloudy with Nearby Thunderstorms 85 29.4 75 23.9 72 72 NNE 3 6 29.94 1014 10 16.0934 0 0
8:03 pm 20:03 Partly Cloudy 84 28.9 75 23.9 74 74 N 5 7 29.94 1014 10 16.0934 0 0
8:53 pm 20:53 Mostly Sunny 82 27.8 75 23.9 79 79 NNE 5 7 29.95 1014 10 16.0934 0 0
9:53 pm 21:53 Mostly Clear 78 25.6 74 23.3 87 87 Calm 29.95 1014 10 16.0934 0 0
10:53 pm 22:53 Clear 76 24.4 74 23.3 94 94 Calm 29.96 1015 10 16.0934 0 0
11:53 pm 23:53 Clear 76 24.4 74 23.3 94 94 Calm 29.97 1015 10 16.0934 0 0

Powered by AerisWeather